Wind_Speed
48 48 48 48 48 48 48 50 50 51 51 52 52 53 53 53 52 51 50 49 48 47 47 47 46 45 43 42 40 39 38 36 35 33 31 30 29 28 26 25 25 24 24 23 23 23 22 22 21 21 20 19 18 18 18 18 17 16 16 16 15 15 14 14 14 13 13 13 13
47 48 48 48 48 48 48 49 49 50 51 52 53 53 53 53 53 52 51 50 49 47 46 46 45 44 43 42 41 39 38 36 35 33 31 30 29 28 27 26 25 25 24 24 24 23 23 22 22 21 20 20 19 19 19 19 18 17 16 16 15 15 14 14 14 13 13 13 13
47 47 47 47 47 47 47 48 49 49 50 51 52 53 53 53 53 52 51 50 49 47 46 45 44 44 43 42 41 39 38 36 35 33 32 30 29 28 27 26 26 25 25 25 24 24 23 23 22 21 21 20 19 19 19 19 18 17 16 16 16 15 15 14 14 14 14 14 14
46 46 46 47 47 47 47 47 48 49 49 50 51 52 53 53 53 53 52 50 49 48 46 45 44 43 42 42 41 39 38 36 35 33 32 31 30 29 28 27 26 26 26 25 25 24 24 23 22 22 21 20 20 19 19 19 18 17 17 16 16 16 15 15 14 14 14 14 15
45 46 46 46 46 47 47 47 47 47 48 49 50 52 53 54 54 53 52 51 50 48 46 44 42 41 41 41 40 39 38 36 35 33 32 31 30 29 28 27 27 27 26 26 25 24 24 23 23 22 21 21 20 20 19 19 18 18 17 17 17 16 16 15 15 15 15 15 15
44 45 45 45 45 45 45 45 45 46 46 48 49 51 52 54 54 54 53 52 51 49 46 43 41 40 40 41 40 39 37 36 35 34 32 31 30 29 29 28 28 27 27 26 25 25 24 23 23 22 22 21 21 20 20 19 18 18 18 18 17 17 16 16 15 15 15 16 15
43 44 44 44 44 44 44 44 44 44 45 46 48 50 52 53 54 54 54 53 51 49 46 43 41 40 40 40 40 39 38 36 35 34 33 31 31 30 29 29 28 28 27 26 25 25 24 24 23 23 22 22 21 21 20 19 19 19 18 18 17 17 17 16 16 16 16 16 16
41 42 43 43 43 44 44 44 43 43 43 45 47 48 50 52 53 53 53 52 51 49 47 43 40 39 39 39 40 39 38 36 35 34 33 32 31 30 30 29 29 28 27 26 26 25 25 24 24 24 23 23 22 21 21 20 19 19 19 18 17 17 17 17 17 17 17 17 17
40 41 42 42 42 43 43 44 44 43 43 44 46 47 48 49 51 52 52 52 51 50 47 43 40 38 38 39 39 39 38 36 35 34 33 32 32 31 30 30 29 28 28 27 26 26 25 25 24 24 24 23 22 22 21 20 20 19 19 18 18 17 18 18 17 17 17 17 17
40 41 41 41 41 42 43 43 44 44 44 44 45 46 46 47 49 51 51 51 51 50 47 43 40 38 38 39 39 38 37 36 35 34 34 33 32 32 31 30 29 29 28 27 26 26 26 25 25 25 24 23 23 22 21 21 20 19 19 18 18 18 18 18 18 17 17 17 18
40 41 41 41 41 41 42 42 43 43 44 44 44 44 44 45 48 49 50 50 51 50 48 44 40 38 38 39 39 38 37 36 35 35 34 33 33 32 31 30 29 29 28 27 27 26 26 26 26 25 24 23 22 22 21 21 20 19 19 18 18 18 18 18 18 18 18 18 18
40 40 40 41 41 41 41 41 41 42 43 43 43 43 43 44 46 47 48 50 50 50 48 44 41 39 38 39 39 38 37 36 36 35 34 34 32 31 30 30 29 28 28 27 27 27 27 26 26 25 24 23 23 22 21 21 20 19 19 19 18 18 18 18 18 18 18 18 18
38 38 39 39 40 40 40 40 41 41 42 42 42 42 42 42 43 45 48 49 50 49 47 45 41 39 38 39 39 38 38 37 36 36 35 34 32 31 30 29 29 28 28 27 27 27 27 26 26 25 24 23 23 22 21 20 20 19 19 19 19 19 19 19 18 18 18 18 19
35 36 37 38 39 39 39 40 40 41 41 41 41 41 41 41 42 44 47 48 49 49 47 45 42 40 39 39 38 38 38 38 37 36 35 33 32 31 30 29 29 28 28 27 27 27 26 26 25 24 24 23 23 22 21 20 20 19 19 19 19 19 19 19 18 18 18 18 19
33 34 36 37 38 38 39 39 39 40 40 40 40 40 40 40 41 43 46 47 48 48 47 45 43 41 39 39 39 38 38 38 37 36 35 33 32 31 30 29 29 28 28 28 27 27 26 26 25 24 24 23 22 22 21 20 20 19 19 19 19 19 19 19 18 18 18 18 19
32 33 34 35 36 37 38 38 38 38 38 38 39 39 39 39 41 43 45 46 47 47 46 45 43 41 40 39 39 39 39 38 37 36 35 33 32 31 30 29 28 28 28 28 27 27 26 25 25 24 24 23 22 21 21 20 20 19 19 19 19 19 19 19 18 18 18 19 19
31 32 33 34 35 36 37 38 37 37 37 37 37 38 39 39 41 43 45 46 46 46 45 44 43 41 40 40 40 40 39 39 38 36 35 33 32 31 30 29 28 28 28 28 27 27 26 25 25 24 23 22 22 21 20 20 20 20 20 20 20 19 19 19 18 18 18 19 19
30 31 32 33 34 36 37 37 37 36 36 36 36 37 38 39 41 43 44 45 45 45 45 44 43 42 41 41 41 41 40 39 38 36 35 33 32 30 29 29 28 28 28 27 27 26 26 25 25 24 23 22 21 21 20 20 20 20 20 20 20 19 19 19 18 18 19 19 20
30 30 31 32 34 35 35 36 36 36 35 35 35 36 38 39 41 42 43 43 44 44 44 43 43 42 42 42 42 41 41 39 38 36 34 33 31 30 29 28 28 28 28 27 26 26 25 25 24 23 23 22 21 21 20 20 20 20 20 20 20 19 19 18 18 19 19 19 20
30 30 31 32 33 33 34 34 35 35 34 34 35 36 37 38 40 41 41 41 42 42 43 43 43 42 42 42 42 42 41 39 37 35 34 32 31 30 29 28 28 28 27 26 26 25 25 24 24 23 22 22 21 21 20 20 20 20 20 20 19 19 19 18 18 19 19 20 21
30 30 30 31 32 32 33 33 33 33 33 33 34 35 36 37 38 39 39 39 40 41 42 42 43 43 43 43 42 42 40 38 37 35 33 32 30 29 29 28 28 27 27 26 25 25 24 24 23 23 22 21 21 21 20 20 20 20 20 20 19 19 19 18 19 19 20 21 21
30 30 30 30 31 31 32 32 32 32 32 32 33 34 35 36 37 37 37 37 38 40 41 42 43 43 43 43 42 41 40 38 36 34 33 32 30 29 29 28 27 27 26 26 25 25 24 24 23 22 22 21 21 21 20 20 20 20 20 19 19 19 19 19 19 20 20 21 21
30 29 29 29 30 30 31 31 31 31 31 31 32 33 35 35 36 36 36 36 37 38 40 41 42 43 43 42 42 41 39 37 36 34 33 31 30 29 29 28 27 27 26 26 25 25 24 24 23 22 22 21 21 21 21 20 20 20 19 19 19 19 19 19 20 20 21 21 21
29 28 28 28 29 30 30 30 30 30 30 31 32 33 34 34 35 35 35 35 36 37 39 40 42 42 42 42 41 40 39 37 36 34 33 32 31 30 29 28 27 26 26 25 25 24 24 24 23 22 22 21 21 21 20 20 20 19 19 19 19 19 19 20 20 21 21 21 21
28 28 28 28 28 29 29 30 30 30 30 31 31 32 33 34 34 34 34 34 35 36 38 40 41 42 43 42 41 40 39 37 36 35 33 32 31 30 29 28 27 26 25 25 24 24 23 23 22 22 21 21 20 20 20 20 20 19 19 19 19 19 20 20 21 21 21 21 21
28 28 27 28 28 28 29 29 30 30 30 30 31 32 33 33 33 33 33 34 34 36 37 39 41 42 43 43 42 40 39 37 36 35 34 33 31 30 29 28 27 26 26 25 24 23 23 22 21 21 20 20 20 20 19 19 19 19 19 19 19 19 20 21 21 21 21 20 20
27 27 28 28 28 28 29 29 29 29 30 30 31 32 32 33 33 33 33 33 34 35 37 39 41 43 43 43 42 41 40 38 36 35 34 33 32 31 29 28 27 26 25 24 23 22 22 21 21 20 20 19 19 19 19 19 19 19 19 19 19 20 20 21 21 21 19 18 17
27 28 28 28 28 28 29 29 29 29 30 30 31 32 32 32 32 32 32 33 34 35 37 39 42 43 44 44 43 42 40 39 37 35 34 33 32 30 29 28 27 26 24 23 22 21 21 20 20 20 19 19 19 19 19 19 19 19 19 19 20 20 21 21 20 19 17 16 16
29 29 29 29 29 29 29 29 29 29 29 30 31 31 32 32 32 32 32 33 34 36 38 40 42 44 45 45 44 42 41 39 37 36 34 33 31 30 29 27 26 24 23 21 21 20 20 20 20 19 19 19 19 19 19 19 19 19 19 20 20 20 20 20 18 17 16 15 15
30 31 31 31 31 30 30 29 29 29 29 29 30 31 31 32 32 32 33 33 35 36 38 40 43 44 46 46 45 43 41 39 38 36 35 33 32 30 28 27 25 23 22 20 20 20 19 19 19 19 19 19 19 19 19 19 19 19 19 20 19 19 17 16 15 15 15 14 14
30 32 33 33 33 32 31 30 29 28 28 29 30 30 31 32 33 33 33 34 34 36 38 40 43 45 46 46 45 43 42 40 38 37 35 34 32 30 28 26 24 22 21 20 19 19 19 19 19 19 19 19 19 19 19 19 19 19 19 19 18 17 16 15 15 15 15 15 15
30 33 34 34 34 33 32 30 29 28 28 29 30 31 31 32 32 33 33 33 34 35 37 40 43 45 46 46 45 43 42 40 39 37 36 34 32 30 28 26 24 22 21 20 19 19 19 19 19 19 19 19 19 19 19 19 19 18 18 17 17 16 16 17 17 16 16 16 16
30 33 35 35 34 34 32 31 29 29 29 29 30 31 31 32 32 32 32 32 33 35 38 40 43 45 46 46 45 44 42 41 39 38 36 34 32 30 28 26 24 22 21 20 19 19 19 19 19 19 19 19 18 18 18 18 18 17 17 17 16 16 17 17 18 18 18 18 17
30 33 35 35 35 34 32 31 30 29 29 29 30 31 31 32 32 32 32 33 34 35 38 40 43 45 46 46 45 44 42 41 39 38 36 34 32 29 28 26 24 22 21 20 19 19 19 19 19 19 19 18 18 18 18 17 17 17 17 17 17 17 18 18 19 19 20 20 21
28 31 34 35 35 34 33 32 30 30 30 30 30 31 31 32 32 33 33 33 34 35 36 38 41 43 45 45 44 43 42 41 40 38 36 34 32 30 28 26 24 22 20 19 19 19 19 19 19 19 19 18 18 18 18 17 17 17 17 17 17 18 18 19 19 20 20 21 22
27 29 31 33 34 34 33 32 31 31 31 31 31 32 32 32 32 32 32 32 33 34 35 37 40 42 43 44 44 43 42 41 39 37 35 34 32 30 28 26 24 21 20 19 19 19 19 19 19 19 19 19 19 19 19 18 18 18 18 17 17 18 18 19 19 19 20 21 21
29 31 31 32 32 33 33 32 32 32 32 32 32 33 33 33 33 32 32 32 33 34 36 37 39 41 43 44 44 44 42 41 39 37 35 34 32 30 28 26 23 21 20 19 19 19 19 19 19 19 19 19 19 19 18 18 18 18 18 18 18 18 18 18 18 18 19 20 20
30 33 34 33 32 32 32 33 33 33 32 32 33 33 33 33 33 32 32 33 34 35 36 37 39 41 43 44 44 43 42 40 38 36 35 34 32 30 28 26 23 22 20 19 19 19 19 19 19 19 19 19 18 18 17 17 18 18 18 18 18 18 18 18 17 17 18 18 18
31 35 36 35 33 32 32 33 33 33 33 33 33 33 33 33 33 33 33 33 34 35 36 37 39 41 42 43 43 42 41 39 38 36 35 34 32 30 27 25 23 22 20 19 19 19 19 19 19 19 19 19 18 17 16 16 17 18 18 18 17 17 16 16 16 16 16 17 18
32 36 37 36 34 32 32 33 34 34 33 33 33 33 33 33 33 32 32 33 34 35 36 37 38 40 42 43 43 42 40 39 37 36 35 33 31 29 26 25 23 21 20 19 19 19 19 19 19 19 19 18 18 17 17 17 17 17 17 17 16 16 15 14 15 15 15 16 17
33 37 38 37 35 33 32 33 33 34 34 33 33 33 32 32 32 32 32 33 33 34 35 36 38 40 42 43 43 42 40 39 37 36 34 32 30 28 26 24 22 21 20 19 19 19 19 19 19 19 19 18 18 17 17 17 17 17 17 17 16 14 14 13 14 14 15 15 15
Wind_Direction
236 234 233 231 229 227 227 227 226 226 226 226 227 227 227 227 227 228 229 230 230 231 231 231 230 229 228 227 226 226 226 226 226 226 227 228 230 231 232 232 234 235 236 237 237 238 238 239 240 241 243 245 246 248 250 253 256 259 262 265 267 269 271 274 278 281 283 284 285
237 235 234 232 230 228 228 227 226 226 226 226 227 228 228 228 228 229 230 230 231 232 232 231 230 228 227 227 226 226 226 226 226 226 227 228 229 230 231 231 233 234 235 235 236 236 237 237 238 240 242 244 245 247 250 254 256 258 261 263 265 267 270 272 276 279 281 281 282
238 236 234 232 230 229 228 228 227 226 226 226 227 227 228 228 229 229 230 232 232 232 232 231 230 228 227 227 227 226 226 226 226 226 227 227 228 229 229 230 232 233 234 234 235 236 236 237 238 239 241 243 245 246 249 253 256 257 259 261 263 265 268 270 273 276 278 279 280
238 236 234 232 231 229 229 229 228 227 227 226 226 227 227 228 229 230 231 232 232 232 232 231 230 228 227 227 227 226 226 226 226 226 226 226 227 227 228 229 231 232 233 234 234 235 236 236 237 239 241 242 244 245 248 252 255 256 258 259 261 263 266 269 272 274 276 278 280
239 237 236 234 232 231 230 230 229 228 227 227 226 227 227 228 229 230 231 231 232 232 232 231 230 229 227 227 227 226 226 225 225 225 225 225 226 226 228 229 230 231 232 233 234 234 235 235 236 238 240 241 243 244 246 250 253 255 257 258 259 262 264 268 270 272 275 277 280
239 238 237 236 234 232 230 230 229 229 228 228 227 228 228 228 229 229 230 231 232 232 232 231 230 229 227 226 226 226 225 224 224 224 224 224 224 225 227 228 229 231 232 233 233 234 234 234 235 236 238 240 242 243 245 247 250 253 256 257 259 261 264 266 268 270 273 277 279
240 239 238 236 234 232 230 229 229 228 228 228 229 229 229 230 230 230 231 232 232 232 231 231 230 228 227 226 225 225 224 224 223 223 223 223 223 225 226 227 229 230 231 232 232 232 233 233 233 235 237 239 240 242 244 245 248 251 255 257 259 261 263 265 267 269 273 276 279
240 240 239 237 235 233 231 230 228 228 228 229 230 230 230 231 231 231 231 231 231 231 231 231 230 228 226 225 224 224 223 223 222 221 221 221 223 224 226 227 228 230 231 231 231 231 231 232 233 234 236 238 239 241 243 245 247 250 253 256 258 260 263 266 268 271 274 277 279
240 240 239 238 236 235 233 231 229 228 228 230 231 231 231 231 231 231 231 231 231 231 231 231 229 227 225 224 224 223 223 222 221 220 220 221 222 224 225 227 228 229 230 231 230 230 231 231 232 233 236 237 239 241 243 245 248 250 253 255 256 258 262 267 270 272 274 277 279
241 241 240 238 237 236 234 232 231 230 230 231 232 232 231 231 232 232 232 231 232 232 231 231 229 226 225 223 223 223 222 221 220 220 220 221 223 224 226 227 228 229 229 229 229 229 230 230 231 233 235 237 239 241 244 246 248 250 252 254 256 258 261 265 269 272 274 276 279
243 242 241 239 238 237 235 233 232 231 231 231 232 232 231 231 231 232 232 232 232 232 231 230 228 226 224 222 222 222 221 220 220 220 221 222 224 225 227 228 229 229 229 229 229 228 229 230 231 233 235 237 238 240 243 246 248 250 252 254 256 258 260 263 267 270 273 276 280
244 243 242 241 240 238 235 233 232 232 232 232 232 232 231 230 231 231 231 231 232 232 231 230 228 226 223 222 221 220 220 219 219 220 221 223 224 226 227 228 229 230 229 229 228 228 229 230 232 233 235 236 237 240 242 245 247 249 251 253 256 258 260 263 265 269 272 276 280
244 242 242 241 240 238 236 234 233 233 232 232 232 231 230 229 230 231 231 231 232 232 231 230 228 226 224 222 220 219 218 218 219 220 221 223 224 225 227 228 228 229 229 228 228 229 230 231 232 233 234 235 237 240 242 244 247 249 251 253 255 258 260 263 266 269 272 276 280
243 241 241 241 239 237 236 234 233 233 233 232 232 230 229 227 228 229 231 231 232 231 230 229 228 226 224 222 220 219 218 218 219 220 221 222 224 225 226 227 227 227 227 227 228 229 230 231 233 233 234 235 237 240 242 244 247 249 251 253 255 258 261 264 266 269 272 276 280
242 240 240 240 239 237 236 234 234 233 233 232 231 230 228 226 227 229 230 231 231 231 230 228 227 225 223 221 219 218 218 218 219 220 221 222 223 224 225 226 226 226 226 226 227 228 230 231 232 233 234 235 237 239 242 244 247 249 251 253 256 258 261 264 267 270 273 277 281
241 240 240 239 238 237 236 235 234 233 232 232 231 229 226 225 226 228 230 231 231 230 229 228 227 225 222 220 218 217 217 218 219 220 221 221 222 223 224 224 225 225 225 226 227 228 229 230 231 232 233 235 236 239 241 244 246 249 251 254 256 259 261 264 267 270 274 279 282
242 240 239 239 238 238 237 236 234 233 232 231 230 228 226 225 225 228 230 231 230 229 228 227 226 224 222 219 217 216 216 218 219 220 220 221 221 222 223 223 224 225 225 226 226 227 227 228 229 230 232 233 235 238 240 243 246 249 251 254 256 258 261 264 267 271 275 280 283
243 240 239 239 238 238 238 237 236 234 232 231 229 228 226 226 227 229 231 232 231 230 228 227 225 223 221 218 216 215 216 217 218 219 220 220 221 222 223 223 224 224 225 226 226 226 227 227 228 229 231 232 234 237 240 243 246 248 251 253 256 258 261 264 268 272 276 280 284
244 241 240 239 239 239 239 239 237 235 233 231 230 228 228 227 229 231 232 233 232 230 228 226 225 223 221 218 216 216 216 217 218 218 219 220 221 221 222 223 223 223 224 225 225 226 226 227 228 229 230 232 234 236 239 242 245 248 251 253 255 258 261 265 269 273 277 281 284
245 242 240 240 240 240 240 240 238 236 234 232 230 229 229 229 231 232 233 233 232 230 228 226 224 222 220 218 217 216 217 217 217 218 218 219 220 221 221 222 222 223 223 224 224 225 225 226 227 228 229 231 233 236 239 242 245 248 250 253 256 259 262 266 270 274 278 282 285
247 244 243 242 242 241 241 241 239 237 234 231 230 229 230 230 232 233 234 234 231 229 227 225 224 222 220 217 216 216 217 218 217 217 218 219 219 220 221 221 221 221 222 222 222 223 224 225 226 227 229 231 233 236 239 242 245 248 251 253 256 260 263 267 271 275 279 282 285
249 247 245 244 243 242 242 241 239 237 233 230 229 229 230 231 232 234 235 234 231 229 226 224 223 221 219 217 216 217 217 218 218 217 218 218 219 219 220 220 220 220 220 220 221 221 222 223 225 226 228 230 233 236 239 242 245 248 250 254 257 261 264 268 272 276 279 282 285
251 249 246 245 244 243 242 241 239 236 233 230 228 228 229 230 232 234 234 233 230 228 226 224 222 221 219 217 217 217 217 217 217 217 217 217 218 218 218 218 218 218 218 219 219 220 221 222 224 226 228 230 233 236 239 242 245 248 250 254 258 261 266 269 273 277 280 282 284
251 249 246 245 244 244 242 240 238 235 232 229 227 227 228 229 230 231 232 231 229 226 224 223 222 220 218 216 216 217 217 217 216 216 216 216 216 216 216 216 215 216 217 218 219 220 221 222 223 225 227 230 233 236 239 242 245 248 250 254 258 262 267 271 274 277 280 282 284
250 248 247 245 245 244 243 240 238 234 231 229 227 227 228 228 229 229 229 228 226 224 222 221 220 218 216 215 215 216 217 217 216 215 215 215 215 214 214 214 214 214 216 218 219 221 222 223 225 227 228 231 234 237 240 243 245 248 251 254 259 263 268 272 276 278 280 283 284
248 247 246 245 245 244 243 241 238 235 232 229 227 226 227 227 228 227 227 225 224 222 220 219 218 216 214 213 213 214 215 215 216 215 215 214 213 213 213 212 212 213 215 217 219 220 222 224 226 228 230 232 235 237 240 243 246 248 252 256 260 264 268 272 276 279 281 282 283
246 245 245 245 245 244 243 242 240 236 232 229 226 226 226 227 226 225 224 223 221 219 218 217 216 214 213 211 211 212 213 213 214 214 215 214 214 213 212 212 212 214 216 218 219 219 221 223 225 228 230 232 235 238 240 243 246 249 252 257 261 265 269 273 275 278 278 277 278
245 244 245 245 244 244 244 243 239 235 232 229 227 226 226 225 224 223 221 220 219 217 215 214 214 213 211 210 210 211 211 212 212 213 213 214 214 214 213 213 214 215 217 218 218 219 220 222 224 227 230 232 235 238 240 243 246 250 254 258 263 267 270 273 275 276 275 275 278
245 245 245 244 244 243 243 241 238 235 232 230 228 226 225 224 222 221 219 217 216 214 212 211 211 210 209 209 209 210 210 211 211 211 212 212 212 213 213 214 215 216 217 217 217 218 219 222 224 227 229 232 234 237 240 243 246 251 255 260 264 268 271 273 274 275 274 275 277
247 246 245 245 244 244 242 240 238 236 233 230 227 225 224 223 221 219 217 215 214 212 211 210 209 208 207 208 208 208 209 210 211 211 211 210 210 211 212 213 214 215 215 215 215 217 219 222 225 227 229 232 233 236 239 243 246 251 256 261 265 266 267 268 267 268 269 270 272
248 246 246 245 245 244 242 241 239 236 232 229 226 224 223 221 219 217 216 214 213 212 211 210 208 207 207 207 208 208 208 209 210 210 210 210 209 210 210 211 212 213 213 213 214 217 219 222 225 227 230 232 234 236 239 243 248 253 258 261 263 262 261 262 261 260 262 266 268
248 246 246 245 244 244 242 240 237 234 231 228 226 224 222 221 219 217 215 213 211 210 209 209 208 207 207 207 207 208 208 209 209 209 209 209 209 209 210 210 211 211 212 212 214 216 219 222 225 227 230 232 235 238 242 246 251 255 257 259 260 259 258 258 258 260 262 264 267
249 246 245 245 244 243 241 238 235 232 229 227 225 224 222 221 219 217 214 212 210 209 208 208 208 207 206 206 207 207 208 209 209 209 209 209 208 208 209 209 210 210 211 212 214 217 220 222 224 226 229 232 235 239 244 248 253 255 255 256 256 255 255 257 259 262 265 267 268
249 246 244 244 243 241 239 236 233 230 228 225 224 223 222 220 217 214 212 210 209 209 208 208 208 207 207 207 207 207 208 208 209 209 208 208 208 207 208 208 209 210 211 212 214 217 220 222 223 225 227 229 232 236 240 245 250 252 254 254 254 255 256 258 261 265 269 273 275
245 242 242 243 242 240 237 234 231 229 226 224 223 222 221 220 217 214 212 210 208 207 207 207 207 207 206 207 208 208 208 208 208 208 208 207 207 207 207 209 209 210 211 212 215 217 220 221 222 223 225 226 229 233 237 241 244 247 250 251 252 255 258 261 264 269 274 278 280
242 236 235 237 239 238 236 233 230 228 226 224 222 221 221 220 218 215 212 210 207 205 205 205 205 204 205 205 207 208 208 209 208 208 207 207 206 206 207 209 209 210 210 212 215 217 219 220 221 222 223 225 228 233 238 242 244 246 248 249 251 253 257 261 266 271 276 279 279
241 234 232 232 233 234 234 232 229 227 226 225 223 222 220 219 217 215 212 209 206 204 203 203 203 203 203 204 205 207 208 209 209 207 206 206 206 206 207 208 209 210 211 213 215 217 219 220 220 221 223 225 230 235 240 244 247 248 249 250 252 254 257 261 265 271 275 278 278
240 236 233 232 231 231 231 230 229 227 226 225 224 223 221 219 216 214 211 209 205 203 202 202 202 202 203 204 205 206 208 209 208 207 206 206 206 206 206 208 209 210 211 213 215 217 218 219 220 221 223 225 230 235 239 243 247 250 251 253 255 257 260 263 266 270 273 276 277
240 237 237 234 231 229 228 228 228 227 226 225 224 223 221 219 216 214 211 209 207 204 202 201 201 201 202 203 204 205 206 207 208 207 207 207 206 206 206 208 210 211 212 214 215 217 218 219 220 221 224 227 231 234 237 240 245 249 252 255 258 260 262 263 266 269 272 275 278
239 238 239 237 233 229 227 226 227 227 226 225 223 222 221 219 217 214 211 209 207 205 203 202 201 201 201 203 203 205 205 206 206 207 207 207 207 206 206 208 211 213 213 214 215 216 218 219 220 222 226 230 233 235 236 239 243 247 251 255 258 261 263 263 265 267 270 272 277
238 238 239 239 235 230 226 225 226 227 226 225 224 223 222 220 217 213 209 207 205 203 201 200 200 200 201 202 203 204 205 205 205 206 206 206 206 205 206 208 211 213 214 215 216 217 217 219 221 224 228 232 235 236 236 239 243 246 250 255 258 260 261 262 264 266 269 271 276
Height
1446 1448 1449 1451 1452 1453 1454 1455 1456 1458 1458 1459 1460 1461 1462 1464 1466 1467 1469 1470 1472 1473 1475 1477 1479 1482 1484 1487 1488 1490 1492 1493 1494 1495 1497 1498 1498 1499 1500 1501 1502 1502 1503 1504 1504 1505 1506 1507 1507 1508 1508 1509 1509 1510 1510 1510 1511 1512 1512 1513 1513 1513 1513 1514 1514 1514 1514 1514 1514
1443 1444 1446 1448 1449 1451 1452 1453 1454 1455 1456 1457 1458 1459 1460 1462 1463 1465 1466 1468 1470 1471 1473 1475 1478 1480 1482 1484 1486 1488 1489 1491 1492 1493 1495 1496 1496 1497 1498 1499 1500 1500 1501 1502 1503 1503 1504 1505 1505 1506 1507 1507 1508 1508 1508 1509 1509 1510 1511 1511 1511 1512 1512 1512 1513 1513 1513 1513 1513
1440 1442 1443 1445 1447 1448 1449 1449 1451 1452 1453 1454 1455 1457 1458 1460 1461 1463 1464 1466 1468 1470 1471 1473 1475 1478 1480 1482 1484 1486 1488 1489 1490 1491 1493 1493 1494 1495 1496 1497 1498 1498 1499 1500 1501 1501 1502 1503 1503 1504 1505 1506 1506 1507 1507 1507 1508 1509 1509 1510 1510 1510 1511 1511 1511 1512 1512 1512 1512
1438 1439 1441 1442 1443 1444 1446 1447 1448 1449 1451 1452 1453 1454 1456 1458 1459 1461 1463 1464 1466 1468 1469 1471 1473 1475 1478 1480 1482 1483 1485 1487 1488 1489 1490 1492 1492 1493 1494 1495 1496 1497 1497 1498 1499 1499 1500 1501 1502 1503 1503 1504 1505 1505 1506 1506 1507 1507 1508 1508 1508 1509 1509 1509 1510 1510 1510 1510 1510
1436 1437 1438 1439 1441 1442 1443 1445 1446 1448 1449 1450 1451 1452 1453 1455 1457 1459 1460 1462 1463 1465 1467 1469 1471 1473 1476 1478 1480 1482 1483 1485 1486 1487 1488 1489 1490 1491 1492 1493 1494 1495 1495 1496 1497 1498 1499 1500 1500 1501 1502 1503 1503 1503 1504 1504 1505 1506 1506 1507 1507 1508 1508 1508 1508 1508 1509 1509 1509
1434 1435 1436 1438 1439 1441 1442 1443 1444 1445 1447 1448 1448 1450 1451 1453 1454 1456 1458 1459 1461 1463 1465 1467 1469 1472 1474 1476 1478 1479 1481 1483 1484 1485 1486 1487 1488 1489 1490 1491 1492 1493 1493 1494 1495 1496 1497 1498 1499 1499 1500 1501 1501 1502 1503 1503 1504 1504 1504 1505 1505 1506 1506 1507 1507 1507 1507 1507 1508
1432 1433 1434 1435 1437 1438 1440 1441 1442 1443 1444 1445 1446 1447 1448 1450 1452 1454 1455 1457 1459 1461 1463 1465 1467 1469 1472 1473 1475 1477 1478 1480 1481 1483 1484 1485 1486 1487 1488 1489 1490 1491 1492 1493 1493 1494 1495 1496 1497 1498 1498 1499 1500 1500 1501 1502 1502 1503 1503 1503 1504 1504 1505 1505 1505 1506 1506 1506 1506
1430 1431 1432 1433 1435 1436 1438 1439 1440 1441 1442 1443 1443 1445 1446 1448 1450 1452 1454 1456 1458 1459 1461 1463 1465 1467 1469 1471 1473 1474 1476 1478 1479 1480 1482 1483 1484 1485 1486 1487 1488 1489 1490 1491 1492 1493 1493 1494 1495 1496 1497 1498 1498 1499 1499 1500 1501 1501 1502 1502 1503 1503 1503 1503 1504 1504 1504 1504 1504
1428 1429 1430 1431 1433 1434 1435 1437 1438 1439 1440 1440 1441 1443 1445 1447 1448 1450 1452 1453 1455 1457 1458 1461 1463 1466 1468 1469 1471 1472 1474 1475 1477 1478 1479 1481 1482 1483 1484 1485 1486 1487 1488 1489 1490 1491 1492 1493 1494 1494 1495 1496 1497 1497 1498 1498 1499 1500 1500 1501 1501 1502 1502 1502 1502 1503 1503 1503 1503
1426 1427 1428 1429 1430 1431 1433 1434 1435 1437 1438 1438 1439 1441 1443 1445 1446 1448 1450 1451 1453 1454 1457 1459 1462 1464 1465 1467 1468 1470 1472 1473 1475 1476 1477 1478 1480 1481 1482 1483 1484 1485 1486 1487 1488 1489 1490 1491 1492 1493 1493 1494 1495 1496 1496 1497 1498 1498 1499 1499 1500 1500 1500 1501 1501 1501 1501 1501 1501
1424 1425 1426 1427 1428 1429 1430 1432 1433 1434 1435 1437 1438 1439 1441 1443 1444 1445 1447 1449 1450 1452 1454 1457 1460 1462 1463 1465 1466 1468 1470 1471 1473 1474 1475 1477 1478 1479 1480 1481 1483 1483 1484 1485 1487 1488 1488 1489 1490 1491 1492 1493 1493 1494 1495 1495 1496 1497 1497 1498 1498 1498 1499 1499 1500 1500 1500 1500 1500
1423 1423 1424 1424 1426 1427 1428 1429 1430 1432 1433 1434 1436 1437 1439 1440 1442 1443 1445 1447 1448 1450 1453 1455 1458 1459 1461 1463 1464 1466 1468 1469 1471 1472 1473 1475 1476 1477 1478 1480 1481 1482 1483 1484 1485 1486 1486 1487 1488 1489 1490 1491 1492 1493 1493 1494 1494 1495 1496 1496 1497 1497 1498 1498 1498 1498 1498 1499 1498
1422 1422 1422 1423 1424 1425 1426 1427 1428 1429 1430 1432 1433 1435 1437 1438 1439 1441 1442 1444 1446 1448 1451 1453 1456 1458 1459 1461 1462 1464 1466 1467 1469 1470 1472 1473 1474 1476 1477 1478 1479 1480 1481 1482 1483 1484 1485 1486 1487 1488 1489 1490 1490 1491 1492 1492 1493 1493 1494 1495 1495 1496 1496 1496 1497 1497 1497 1497 1497
1421 1421 1421 1421 1422 1423 1424 1425 1426 1427 1428 1429 1431 1433 1434 1436 1437 1438 1440 1441 1443 1446 1448 1451 1453 1455 1457 1459 1460 1462 1464 1465 1467 1468 1470 1471 1473 1474 1475 1476 1477 1478 1479 1480 1481 1482 1483 1484 1485 1486 1487 1488 1489 1489 1490 1491 1491 1492 1493 1493 1493 1494 1494 1495 1495 1496 1496 1496 1496
1419 1419 1419 1419 1420 1421 1422 1423 1423 1425 1426 1427 1429 1430 1432 1434 1435 1436 1437 1439 1441 1444 1446 1449 1451 1453 1455 1457 1459 1460 1462 1463 1465 1467 1468 1469 1471 1472 1473 1474 1476 1477 1478 1479 1480 1481 1482 1483 1484 1485 1486 1487 1487 1488 1489 1489 1490 1491 1491 1492 1492 1493 1493 1493 1494 1494 1494 1494 1494
1418 1418 1418 1418 1418 1419 1419 1420 1422 1423 1424 1425 1427 1428 1430 1431 1432 1433 1434 1437 1439 1442 1444 1446 1449 1451 1453 1455 1457 1458 1460 1462 1463 1465 1466 1467 1469 1470 1471 1473 1474 1475 1476 1477 1478 1479 1480 1482 1483 1484 1484 1485 1486 1487 1487 1488 1488 1489 1490 1490 1491 1491 1492 1492 1493 1493 1493 1493 1493
1417 1417 1417 1416 1416 1417 1418 1418 1420 1421 1422 1423 1424 1426 1428 1429 1430 1431 1432 1434 1437 1439 1442 1444 1446 1449 1451 1453 1454 1456 1458 1460 1461 1463 1464 1465 1467 1468 1470 1471 1472 1473 1474 1476 1477 1478 1479 1480 1481 1482 1483 1484 1485 1485 1486 1487 1487 1488 1488 1489 1489 1490 1490 1491 1491 1491 1491 1491 1491
1416 1415 1415 1415 1415 1415 1416 1417 1418 1419 1420 1421 1423 1424 1425 1426 1427 1428 1430 1432 1435 1437 1439 1442 1444 1446 1448 1450 1452 1454 1456 1458 1459 1461 1462 1464 1465 1467 1468 1470 1471 1472 1473 1474 1475 1476 1478 1479 1480 1481 1482 1483 1483 1484 1484 1485 1486 1486 1487 1487 1488 1488 1489 1489 1489 1490 1490 1490 1489
1414 1414 1414 1413 1413 1413 1414 1415 1416 1417 1418 1419 1421 1422 1423 1424 1425 1426 1428 1430 1433 1435 1438 1440 1442 1444 1446 1448 1450 1452 1453 1455 1457 1459 1461 1462 1464 1466 1467 1468 1469 1471 1472 1473 1474 1475 1476 1478 1478 1479 1480 1481 1482 1483 1483 1484 1484 1485 1485 1486 1486 1487 1487 1488 1488 1488 1488 1488 1488
1413 1413 1412 1412 1412 1412 1413 1413 1414 1415 1417 1418 1419 1419 1420 1422 1423 1424 1426 1428 1431 1433 1435 1438 1440 1442 1444 1446 1448 1450 1452 1454 1456 1458 1459 1461 1463 1464 1465 1467 1468 1469 1470 1471 1473 1474 1475 1476 1477 1478 1479 1480 1480 1481 1482 1482 1483 1483 1484 1484 1485 1485 1486 1486 1486 1487 1486 1486 1486
1412 1411 1411 1411 1411 1411 1411 1412 1413 1414 1415 1416 1417 1418 1418 1419 1421 1422 1424 1426 1428 1431 1433 1435 1438 1439 1441 1443 1446 1448 1450 1452 1454 1456 1458 1459 1461 1463 1464 1465 1466 1468 1469 1470 1471 1473 1473 1475 1476 1477 1477 1478 1479 1480 1480 1481 1482 1482 1483 1483 1483 1484 1484 1485 1485 1485 1485 1484 1484
1410 1410 1409 1409 1409 1409 1410 1411 1412 1413 1413 1414 1415 1416 1417 1418 1419 1420 1422 1424 1427 1429 1431 1433 1435 1437 1439 1442 1444 1446 1448 1450 1453 1454 1456 1458 1459 1461 1463 1464 1465 1466 1467 1468 1470 1471 1472 1473 1474 1475 1476 1477 1478 1478 1479 1480 1480 1481 1481 1482 1482 1483 1483 1483 1483 1483 1483 1483 1483
1408 1408 1408 1408 1408 1408 1408 1409 1410 1411 1412 1413 1414 1414 1415 1416 1417 1418 1420 1423 1424 1427 1429 1431 1433 1435 1438 1440 1443 1445 1447 1449 1451 1453 1454 1456 1458 1459 1461 1462 1463 1464 1465 1467 1468 1469 1470 1471 1472 1473 1474 1475 1476 1477 1478 1478 1479 1479 1480 1481 1481 1481 1482 1482 1482 1482 1481 1481 1481
1407 1407 1406 1406 1406 1406 1407 1408 1408 1409 1410 1411 1412 1413 1413 1414 1416 1417 1418 1420 1422 1424 1427 1429 1431 1433 1436 1439 1441 1443 1445 1447 1449 1451 1453 1454 1456 1457 1459 1460 1461 1463 1464 1465 1466 1468 1468 1470 1471 1472 1473 1474 1475 1475 1476 1477 1478 1478 1479 1479 1480 1480 1480 1480 1480 1480 1480 1479 1479
1405 1405 1404 1404 1404 1404 1405 1406 1407 1408 1409 1410 1411 1411 1412 1413 1414 1415 1417 1418 1420 1422 1425 1427 1429 1432 1434 1437 1439 1442 1443 1445 1447 1449 1450 1452 1454 1455 1457 1458 1460 1461 1463 1464 1465 1466 1467 1468 1469 1470 1471 1472 1473 1474 1475 1475 1476 1477 1477 1478 1478 1478 1478 1478 1478 1478 1478 1478 1478
1404 1403 1402 1402 1402 1403 1403 1404 1405 1406 1407 1408 1409 1410 1410 1411 1412 1413 1415 1416 1418 1420 1423 1425 1427 1429 1432 1435 1437 1439 1442 1443 1445 1447 1448 1450 1452 1453 1455 1456 1458 1459 1461 1462 1463 1464 1466 1467 1468 1469 1470 1471 1472 1473 1473 1474 1475 1475 1476 1476 1477 1477 1477 1477 1477 1477 1476 1476 1476
1402 1401 1400 1400 1400 1401 1401 1402 1403 1405 1406 1407 1408 1408 1409 1410 1411 1412 1413 1415 1417 1419 1421 1423 1425 1427 1430 1433 1435 1437 1439 1441 1443 1445 1447 1448 1450 1452 1453 1455 1456 1458 1459 1460 1462 1463 1464 1465 1466 1468 1468 1469 1470 1471 1472 1473 1473 1474 1474 1475 1475 1475 1475 1475 1475 1475 1475 1475 1474
1400 1399 1398 1398 1398 1399 1400 1401 1402 1403 1404 1405 1406 1407 1408 1408 1410 1411 1412 1413 1415 1417 1419 1421 1423 1425 1428 1431 1433 1435 1437 1439 1441 1443 1445 1447 1448 1450 1451 1453 1454 1456 1457 1459 1460 1462 1463 1464 1465 1466 1467 1468 1469 1470 1471 1471 1472 1473 1473 1473 1473 1474 1474 1474 1473 1473 1473 1473 1473
1398 1397 1396 1396 1397 1397 1398 1399 1400 1401 1403 1404 1405 1406 1407 1407 1408 1409 1410 1412 1413 1415 1417 1418 1420 1423 1426 1428 1430 1433 1435 1437 1439 1441 1443 1445 1447 1448 1450 1452 1453 1455 1456 1458 1459 1460 1461 1463 1463 1465 1466 1467 1468 1468 1469 1470 1470 1471 1472 1472 1472 1472 1472 1472 1472 1472 1472 1472 1472
1396 1395 1394 1394 1395 1396 1397 1397 1398 1400 1401 1403 1403 1404 1405 1406 1407 1408 1409 1410 1411 1413 1414 1416 1418 1420 1423 1425 1428 1430 1433 1435 1438 1439 1441 1443 1445 1447 1448 1450 1452 1453 1455 1456 1458 1459 1460 1461 1462 1463 1464 1465 1466 1467 1468 1468 1469 1470 1470 1470 1471 1471 1471 1471 1471 1471 1471 1471 1471
1393 1393 1393 1393 1393 1394 1395 1396 1397 1398 1400 1401 1402 1403 1403 1404 1405 1406 1407 1408 1409 1411 1413 1414 1416 1418 1421 1423 1426 1429 1431 1433 1436 1438 1439 1441 1443 1445 1447 1449 1450 1452 1453 1455 1456 1457 1458 1460 1461 1462 1463 1464 1465 1466 1466 1467 1468 1468 1469 1469 1469 1469 1469 1469 1469 1469 1469 1469 1469
1392 1391 1390 1391 1391 1392 1393 1394 1395 1397 1398 1399 1400 1401 1402 1403 1403 1405 1406 1407 1408 1410 1412 1413 1415 1417 1420 1422 1425 1427 1429 1432 1433 1436 1438 1440 1442 1444 1446 1448 1449 1450 1452 1453 1454 1456 1457 1458 1459 1460 1461 1462 1463 1464 1465 1466 1466 1467 1467 1468 1468 1468 1468 1468 1468 1468 1468 1468 1468
1390 1389 1389 1389 1389 1390 1391 1393 1394 1395 1396 1397 1398 1399 1400 1401 1402 1403 1405 1406 1408 1408 1410 1411 1413 1416 1418 1420 1423 1425 1428 1430 1432 1434 1436 1438 1441 1443 1444 1446 1448 1449 1450 1452 1453 1454 1456 1457 1458 1459 1460 1461 1462 1463 1463 1464 1465 1465 1466 1466 1466 1466 1466 1466 1466 1466 1466 1466 1465
1388 1388 1387 1387 1388 1388 1389 1390 1392 1393 1394 1395 1396 1397 1398 1399 1401 1402 1403 1404 1406 1407 1408 1410 1412 1414 1416 1419 1421 1424 1426 1428 1430 1433 1435 1437 1439 1441 1443 1444 1446 1447 1449 1450 1452 1453 1454 1455 1457 1458 1459 1460 1461 1462 1463 1463 1463 1464 1464 1464 1464 1465 1464 1464 1464 1464 1464 1463 1463
1387 1386 1385 1385 1386 1387 1388 1388 1390 1391 1392 1393 1394 1395 1396 1397 1398 1400 1401 1403 1404 1406 1408 1409 1411 1414 1416 1418 1420 1423 1424 1426 1428 1431 1433 1436 1438 1440 1441 1443 1444 1446 1447 1449 1450 1451 1453 1454 1455 1456 1458 1459 1460 1461 1461 1462 1463 1463 1463 1463 1463 1463 1463 1463 1462 1462 1462 1461 1461
1385 1384 1383 1383 1384 1385 1386 1387 1388 1389 1390 1391 1392 1393 1394 1395 1396 1398 1399 1401 1403 1405 1407 1408 1411 1413 1415 1417 1419 1421 1423 1425 1427 1430 1432 1434 1437 1438 1440 1441 1443 1444 1446 1447 1449 1450 1451 1453 1454 1455 1456 1458 1458 1459 1460 1461 1461 1461 1462 1462 1462 1462 1461 1461 1460 1460 1460 1459 1459
1382 1381 1381 1381 1382 1383 1384 1385 1386 1387 1388 1388 1390 1390 1392 1393 1394 1396 1398 1400 1401 1403 1405 1407 1409 1411 1413 1415 1417 1419 1421 1423 1426 1428 1431 1433 1435 1437 1438 1440 1442 1443 1444 1446 1447 1448 1450 1451 1452 1453 1455 1456 1457 1458 1458 1459 1459 1460 1460 1460 1460 1460 1460 1459 1459 1458 1458 1458 1457
1379 1378 1377 1378 1379 1380 1382 1383 1383 1384 1385 1386 1388 1388 1389 1391 1392 1394 1396 1397 1399 1401 1403 1405 1407 1409 1411 1413 1416 1418 1420 1423 1425 1427 1429 1432 1433 1435 1437 1439 1440 1442 1443 1444 1446 1447 1448 1450 1451 1452 1453 1454 1456 1456 1457 1458 1458 1458 1458 1458 1458 1458 1458 1458 1458 1457 1456 1456 1455
1376 1374 1373 1374 1376 1378 1379 1380 1381 1382 1383 1384 1385 1387 1388 1389 1390 1391 1393 1395 1397 1399 1401 1403 1405 1408 1410 1412 1415 1417 1419 1422 1424 1426 1428 1430 1432 1434 1436 1438 1439 1440 1442 1443 1444 1446 1447 1448 1449 1451 1452 1453 1454 1455 1456 1456 1457 1457 1457 1457 1457 1457 1457 1456 1456 1455 1455 1454 1454
1373 1371 1370 1371 1373 1375 1377 1378 1379 1380 1381 1382 1383 1385 1386 1387 1388 1389 1391 1393 1395 1398 1400 1402 1404 1406 1409 1411 1413 1416 1418 1421 1423 1425 1427 1429 1431 1433 1435 1436 1438 1439 1440 1442 1443 1444 1445 1447 1448 1449 1450 1452 1453 1453 1454 1455 1455 1455 1455 1455 1455 1455 1455 1455 1454 1454 1453 1453 1453
1370 1368 1368 1368 1370 1372 1374 1375 1377 1378 1379 1380 1381 1383 1384 1385 1387 1388 1389 1391 1393 1396 1398 1401 1403 1405 1407 1409 1412 1415 1417 1419 1422 1424 1426 1428 1430 1432 1434 1435 1436 1437 1439 1440 1441 1443 1444 1445 1447 1448 1449 1450 1451 1452 1453 1453 1453 1453 1453 1454 1454 1454 1454 1453 1453 1453 1452 1452 1451